Lid_Strength_Index
1 1 1 1 1 1 2 1 2 2 2 2 3 3 3 3 3 3 3 3 3 2 2 2 1 1 4 8 7 4 -4 -2 3 6 6 6 7 8 9 8 7 7 7 5 5 5 5
1 1 1 1 1 2 2 1 2 2 2 3 3 3 3 3 3 3 3 3 3 2 2 2 1 0 4 10 5 3 2 4 5 6 7 6 7 7 8 9 8 6 7 6 5 6 5
1 1 1 1 2 2 2 2 2 2 2 2 3 3 3 3 3 3 3 3 3 3 2 1 0 1 5 8 3 4 4 4 5 6 7 6 6 8 8 8 6 7 9 8 7 6 6
2 2 1 2 2 2 2 2 2 2 3 2 3 2 3 3 3 3 3 3 3 2 2 1 -0 4 9 5 3 3 5 5 5 4 6 5 6 8 9 8 8 8 9 11 8 6 6
1 1 2 2 2 2 2 2 2 2 2 2 3 3 3 3 3 3 3 3 3 2 1 1 5 7 9 2 4 4 5 5 7 7 6 3 6 9 9 10 11 11 13 11 9 6 6
1 1 1 2 2 2 2 2 2 2 2 3 3 3 3 3 3 4 3 3 3 2 2 1 1 7 6 7 6 5 5 5 7 6 6 7 9 11 12 12 14 12 12 11 11 8 7
1 1 1 1 2 2 2 2 2 3 3 3 3 3 3 4 4 4 5 6 8 8 6 10 10 7 6 5 5 6 5 6 7 8 10 9 10 13 12 10 9 10 11 11 10 7 8
1 1 1 2 2 2 2 2 3 3 3 3 3 4 4 4 4 4 7 7 7 6 9 6 5 6 5 6 8 7 6 8 8 10 10 11 12 9 9 9 10 11 12 12 10 6 8
1 1 1 2 2 2 2 2 3 3 3 3 3 3 4 4 5 7 8 7 6 7 9 7 6 6 6 6 7 8 7 8 9 10 10 12 10 8 9 10 10 12 13 12 11 9 8
1 1 1 2 2 2 3 3 3 3 3 3 3 4 4 4 8 7 7 7 6 6 12 9 8 5 6 6 8 6 6 7 8 9 10 11 8 9 10 10 10 13 10 10 10 12 14
1 1 1 1 2 2 3 3 3 3 3 3 3 4 5 5 8 6 5 5 8 7 16 8 9 5 7 8 8 7 6 7 9 9 10 10 10 10 11 10 9 10 9 10 10 13 14
1 1 1 1 2 3 3 3 3 3 3 3 4 4 5 6 8 6 5 5 7 12 15 10 9 9 9 10 9 7 7 6 7 9 10 10 9 10 10 8 9 8 10 12 13 14 16
1 1 1 1 2 3 3 3 3 3 3 4 4 5 5 4 7 5 5 7 11 14 10 10 11 11 10 11 9 9 9 10 11 13 14 11 11 9 9 11 10 10 14 16 16 16 16
1 1 1 2 2 3 4 3 3 3 4 4 5 5 6 5 6 6 7 9 14 10 11 10 10 10 10 10 11 10 11 12 12 13 15 15 14 10 9 10 11 12 13 16 18 18 16
1 1 1 1 2 3 4 3 3 3 4 5 6 8 8 6 6 7 8 12 14 12 9 10 10 11 12 10 10 11 12 12 12 11 14 15 13 8 9 10 10 13 14 13 16 16 16
1 1 1 1 2 3 4 3 3 4 4 5 7 6 5 5 4 6 9 12 12 9 7 8 12 10 13 12 11 12 13 11 11 10 11 12 13 11 9 9 8 10 11 13 15 17 18
1 1 1 1 2 3 3 3 3 4 5 6 8 8 4 4 5 7 12 12 9 7 6 8 10 12 12 11 11 13 12 10 9 10 10 12 12 11 10 11 12 11 12 13 14 15 16
1 1 1 2 2 2 3 4 4 4 5 8 8 9 5 4 8 11 12 9 9 7 7 8 9 9 10 9 12 11 11 9 7 8 9 9 12 13 13 10 10 10 12 13 15 16 16
2 1 2 2 2 2 3 4 4 4 5 9 10 8 5 5 11 13 11 9 8 8 8 8 8 8 9 10 11 10 8 7 6 8 10 10 13 15 13 13 11 12 12 12 14 15 15
2 2 2 2 2 2 2 4 4 4 6 9 8 9 7 8 10 11 12 11 9 6 7 7 7 8 9 10 10 10 9 8 7 7 5 8 15 15 16 14 12 12 10 12 14 15 15
2 2 3 2 2 2 2 3 4 4 6 8 9 9 8 10 9 11 11 11 10 9 7 8 8 8 9 10 11 11 10 10 8 6 9 11 13 13 12 11 10 10 10 10 13 13 14
2 2 2 3 2 3 3 3 4 4 4 7 10 10 10 10 9 10 11 11 9 8 8 8 9 8 9 10 11 11 11 11 12 10 11 12 13 11 13 10 10 11 10 11 10 11 12
2 3 2 2 3 3 3 3 3 4 5 8 8 8 9 10 9 11 11 9 8 7 7 7 7 9 9 9 8 9 8 9 8 12 12 13 13 14 14 11 11 13 11 12 11 11 11
3 3 3 3 2 3 3 3 3 4 4 6 8 8 9 10 9 9 8 8 8 8 9 7 8 9 8 8 8 9 10 11 11 11 12 13 14 14 14 13 17 12 9 9 11 10 10
3 4 4 3 3 3 3 4 3 3 4 6 7 6 10 11 9 9 9 9 9 9 8 8 7 7 8 9 11 13 12 11 10 10 12 12 13 13 14 15 13 10 10 10 12 12 9
3 4 4 4 4 3 3 3 4 4 4 7 7 5 7 10 10 8 9 9 11 11 9 8 6 8 8 11 12 14 15 13 12 10 12 12 12 12 15 16 16 12 8 7 8 15 8
4 4 4 4 4 4 4 3 3 3 3 5 7 6 7 9 9 9 10 10 9 10 11 9 9 9 9 11 12 13 13 10 13 14 13 13 13 14 14 14 12 9 7 6 14 13 8
4 4 4 4 4 5 5 4 3 3 3 4 7 6 6 8 8 6 6 9 9 10 10 9 9 9 10 11 12 12 13 11 12 12 12 13 13 14 14 16 17 7 8 11 9 8 7
5 5 4 4 4 5 5 5 4 3 3 4 8 6 5 7 7 6 4 4 5 7 9 9 9 10 9 10 11 11 12 12 12 14 11 13 11 12 12 12 9 8 8 7 9 9 9